sat.trackr.live / text

‹ back to catalog

STARLINK-3655

NORAD 51983 · 2022-025AD

PAYLOAD ACTIVE UNKNOWN

§ Identity

Operator
Country
US
Launch date
2022-03-09
Launch site
AFETR
Launch vehicle
Mass (kg)
RCS (m²)

Purposes: comms

External: N2YO · Heavens-Above · Gunter

§ Orbital elements

Epoch: 2026-09-19T23:06:02.209248Z

Period
93.76 min
Inclination
53.1576°
Eccentricity
0.0002020
Mean motion
15.35841620 rev/d
Perigee alt
457.0 km
Apogee alt
459.8 km
Semi-major
6,836.6 km
B*
1.7777e-4
RAAN
237.9571°
Arg perigee
65.5879°
Mean anomaly
294.5335°
Rev number
25,050

§ Raw data

STARLINK-36551 51983U 22025AD  26262.96252557  .00005911  00000+0  17777-3 0  99932 51983  53.1576 237.9571 0002020  65.5879 294.5335 15.35841620250501

JSON: /api/v1/satellites/51983 · /tle

For live sub-satellite position, see the globe view (requires WebGL).

§ Visibility from observer

Set your observer location to see the next 7 days of passes ≥ 10°. The values pass through the URL so the page stays shareable.

No JS? Fill the form by hand. The geolocation button needs JavaScript.